Regional Weather Roundup
Issued by NWS Sioux Falls, SD

Home | Current Version | Previous Version | Text Only | Print | Product List | Glossary Off
Versions: 1 2 3 4 5 6 7 8 9 10 11 12 13 14 15 16 17 18 19 20 21 22 23 24 25 26 27 28 29 30 31 32 33 34 35 36 37 38 39 40 41 42 43 44 45 46 47 48 49 50

000
ASUS43 KFSD 301202
RWRFSD

WEATHER ROUNDUP FOR SE SOUTH DAKOTA/SW MINNESOTA/NW IOWA
NATIONAL WEATHER SERVICE SIOUX FALLS SD
700 AM CDT SAT APR 30 2016

NOTE: "FAIR" INDICATES FEW OR NO CLOUDS BELOW 12,000 FEET WITH NO
SIGNIFICANT WEATHER AND OR OBSTRUCTIONS TO VISIBILITY.


SDZ038>040-050-052>070-301300-
SOUTHEAST SOUTH DAKOTA

CITY           SKY/WX    TMP DP  RH WIND       PRES   REMARKS
BROOKINGS      CLOUDY    42  38  85 NE13      29.97S
CHAMBERLAIN    NOT AVBL
HURON          CLOUDY    42  38  85 NE15      30.00S
6HR MIN TEMP:  41; 6HR MAX TEMP:  42;

MADISON        FAIR      39  39 100 NE16      29.95S
MITCHELL       CLOUDY    43  39  86 NE13      29.96S
6HR MIN TEMP:  43; 6HR MAX TEMP:  46;

SIOUX FALLS    CLOUDY    44  37  76 NE22G30   29.91F
6HR MIN TEMP:  42; 6HR MAX TEMP:  44;

WINNER         LGT RAIN  43  39  86 NE12      29.95R
YANKTON        CLOUDY    45  37  76 NE16G24   29.88R
$$

MNZ071-072-080-081-089-090-097-098-301300-
SOUTHWEST MINNESOTA

CITY           SKY/WX    TMP DP  RH WIND       PRES   REMARKS
FAIRMONT       CLOUDY    45  30  57 NE15      29.95F
JACKSON        CLOUDY    43  37  81 NE17G24   29.95F
LUVERNE        CLOUDY    43  36  75 NE15      29.92F
MARSHALL       CLOUDY    41  35  79 NE15      30.02S
6HR MIN TEMP:  37; 6HR MAX TEMP:  43;

MONTEVIDEO     CLOUDY    39  34  81 E15       30.07S
REDWOOD FALLS  CLOUDY    41  33  73 NE8G17    30.03F
TRACY          CLOUDY    41  38  90 NE13      30.00F
WINDOM         MOCLDY    43  39  87 NE13      29.97F
WORTHINGTON    CLOUDY    42  38  85 NE18      29.93F
$$

IAZ001>003-012>014-020>022-031-032-NEZ013-014-SDZ071-301300-
NORTHWEST IOWA

CITY           SKY/WX    TMP DP  RH WIND       PRES   REMARKS
DENISON        LGT RAIN  43  41  93 E23G33    29.76F
ESTHERVILLE    CLOUDY    43  39  86 NE20      29.92F
SIOUX CITY     RAIN      45  41  86 E17G26    29.81F FOG
6HR MIN TEMP:  45; 6HR MAX TEMP:  47; 6HR PCP:  0.33;

SPENCER        LGT RAIN  44  38  79 NE22G30   29.90F
6HR MIN TEMP:  44; 6HR MAX TEMP:  46; 6HR PCP: TRACE;

STORM LAKE     CLOUDY    43  41  93 E23G33    29.87R FOG
$$

ABBREVIATIONS USED IN REMARKS
   TC - TEMPERATURE IN CELSIUS
  WCI - WIND CHILL INDEX
   HX - HEAT INDEX
  VSB - VISIBILITY




USA.gov is the U.S. government's official web portal to all federal, state and local government web resources and services.